Home > Weather > Tarlac City > Past weeks

Flag for Philippines Weather for the Past 2 Weeks in Tarlac City, Philippines

Now
81 °F

Passing clouds.


Feels Like: 84 °F
Forecast: 69 / 89 °F
Wind: 6 mph from Northwest

Location: Clarkfield Pampanga International Airport

Current Time: Feb 14, 2016 at 9:01:14 PM

Latest Report: Feb 14, 2016 at 8:00 PM


Visibility: N/A

Pressure: 29.98 "Hg

Humidity: 70%

Dew point: 70 °F

Location of Tarlac CityLocation

Historic Weather in Tarlac City — Graph

°F

Tarlac City Temperature Yesterday

Maximum temperature yesterday: 91 °F (at 2:00 PM)
Minimum temperature yesterday: 70 °F (at 4:00 AM)
Average temperature yesterday: 80 °F

High & Low Weather Summary for the Past Weeks

 TemperatureHumidityPressure
High91 °F (Feb 13, 2:00 PM)94% (Feb 4, 10:00 PM)30.07 "Hg (Feb 4, 10:00 PM)
Low68 °F (Feb 8, 6:00 AM)46% (Feb 13, 2:00 PM)29.80 "Hg (Feb 5, 3:00 PM)
Average79 °F77%29.96 "Hg
* Reported Jan 30 8:00 PM — Feb 14 8:00 PM, Tarlac City, Weather by CustomWeather, © 2016

Note: Actual official high and low records may vary slightly from our data, if they occured in-between our weather recording intervals... More about our weather records

Advertising

Tarlac City Weather History for the Previous 24 Hours

 ConditionsComfort  
Time TempWeatherWind HumidityBarometerVisibility
8:00 PM
Sun, Feb 14
81 °FPassing clouds.6 mph70%29.98 "HgN/A
7:00 PM82 °FPassing clouds.7 mph62%29.95 "HgN/A
6:00 PM86 °FPartly sunny.3 mph59%29.92 "HgN/A
5:00 PM90 °FPartly sunny.7 mph52%29.92 "HgN/A
4:00 PM90 °FPartly sunny.6 mph55%29.89 "HgN/A
3:00 PM90 °FBroken clouds.5 mph55%29.89 "HgN/A
2:00 PM90 °FBroken clouds.5 mph55%29.92 "HgN/A
1:00 PM90 °FBroken clouds.8 mph55%29.92 "HgN/A
12:00 PM86 °FPartly sunny.7 mph66%29.95 "Hg6 mi
11:00 AM84 °FPartly sunny.5 mph70%29.98 "Hg6 mi
10:00 AM82 °FPartly sunny.6 mph74%30.01 "Hg6 mi
9:00 AM79 °FPartly sunny.6 mph84%30.01 "Hg6 mi
8:00 AM75 °FPartly sunny.5 mph89%29.98 "Hg5 mi
7:00 AM73 °FPartly sunny.5 mph89%29.98 "Hg5 mi
6:00 AM73 °FPassing clouds.6 mph89%29.95 "HgN/A
5:00 AM73 °FPassing clouds.5 mph94%29.95 "HgN/A
4:00 AM75 °FPassing clouds.5 mph89%29.92 "HgN/A
3:00 AM75 °FPassing clouds.7 mph89%29.92 "HgN/A
2:00 AM77 °FPassing clouds.7 mph89%29.92 "HgN/A
1:00 AM77 °FPassing clouds.5 mph89%29.95 "HgN/A
12:00 AM77 °FPartly cloudy.5 mph83%29.98 "HgN/A
11:00 PM
Sat, Feb 13
77 °FPassing clouds.3 mph83%29.98 "HgN/A
10:00 PM79 °FPassing clouds.5 mph79%29.98 "HgN/A
9:00 PM79 °FPassing clouds.5 mph79%29.95 "HgN/A
Weather by CustomWeather, © 2016

See weather overviewHow to use our weather pages